Showing default

COSMOS 2168, 21782

Orbit data source: Space-Track

COSMOS 2168, 21782 is a payload satellite owned by UNKS RF (CIS) in LEO that was launched on Tue, 12 Nov 1991 UTC via a TSIKLON-3 launch vehicle from the Plesetsk Missile And Space Complex (PKMTR). Payload-class satellites include a variety of spacecraft equipped with specific instruments for various scientific and technological missions. These include communications satellites like Starlink; space stations such as the ISS; scientific satellites like the Hubble; Earth observation satellites from companies like Planet Labs, Umbra, and HawkEye 360; GPS; miniature CubeSats for education and research; and military/defense satellites.

Loading next visibility...
Identifier
21782, 1991-077D
Orbit
LEO
Country
Flag of CISCIS
Related business
Manufacturer
NPO PM
Mission
Defense Communications
Bus & Motor
STRELA-3, Unknown motor
Mass
225 kg wet, 225 kg dry
Launch date (UTC)
Icon of a cake. It is the launch day of the satellite!1991-11-12 (34 years ago)
Launch vehicle
TSIKLON-3
Launch site
Plesetsk Missile And Space Complex (PKMTR)
Object type
Payload
Rocket body
Debris
Shape & HBR
Cyl, 0.8 m
Radar Cross Section
1.257 m², Large (>1 m²)

Expand to show TLE details & history
Last TLE update: 1 day ago

TLE from 1 day ago
0 COSMOS 2168
1 21782U 91077D   25315.17704575  .00000014  00000-0  15369-4 0  9999
2 21782  82.5989 352.4894 0014181 157.2577 266.3877 12.65525678570229
Epoch: 2025-11-11T04:14Z
TLE epoch observation values (Epoch: 2025-11-11T04:14:56.752Z)
Latitude
62.62682°
Longitude
-107.35795°
Altitude
1,411.645 km
Speed
7.16 km/s
True Right ascension
00h 27m 47s
True Declination
62° 29' 53"
Sunlit
Object was in full shadow at epoch
Visualization orbit readout
Latitude
Unknown
Longitude
Unknown
Altitude
Unknown
Speed
Unknown
Apparent Right ascension
Unknown
Apparent Declination
Unknown
Sunlit
N/A
Visualization observer readout
Local Sidereal Time
01:32:53
Azimuth
Unknown
Elevation
Unknown
Doppler factor
Unknown
Orbital elements
Apogee altitude
1,408.562 km
Perigee altitude
1,386.509 km
Semi-major axis
7,775.672 km
Eccentricity
0.00142
Inclination
82.5989°
RAAN
352.4894°
Arg. of periapsis
157.2577°
True anomaly
266.22554°
Mean anomaly
266.3877°
Eccentric anomaly
266.30662°
Mean motion
3.16546 °/min
Orbital period
113.73 mins
BSTAR
0.000015369
Loading maneuver chart data...
Computing Atmospheric mass density...
Loading historical data...
Loading historical data...
Loading historical data...
Loading historical data...
Loading historical data...
Loading historical data...
Loading historical data...

Documentation

Showing up to 5 results
|